Date,TemperatureHighF,TemperatureAvgF,TemperatureLowF,DewpointHighF,DewpointAvgF,DewpointLowF,HumidityHigh,HumidityAvg,HumidityLow,PressureMaxIn,PressureMinIn,WindSpeedMaxMPH,WindSpeedAvgMPH,GustSpeedMaxMPH,PrecipitationSumIn
2013-1-1,20,10,0,7,-1,-6,90,64,37,30.56,30.28,17,3,18,0.00
2013-1-2,23,11,2,1,-4,-8,69,51,33,30.64,30.46,18,4,20,0.00
2013-1-3,27,10,-4,-5,-9,-13,65,44,20,30.77,30.61,15,3,18,0.00
2013-1-4,38,21,7,8,1,-6,55,42,28,30.66,30.29,17,3,21,0.00
2013-1-5,40,25,14,3,0,-5,48,34,18,30.52,30.32,10,2,11,0.00
2013-1-6,39,22,7,3,-3,-9,49,34,20,30.53,30.29,18,5,20,0.00
2013-1-7,41,25,11,4,0,-4,55,35,19,30.31,30.10,12,4,14,0.00
2013-1-8,42,30,21,14,6,-8,53,36,22,30.42,30.08,13,3,16,0.00
2013-1-9,44,28,18,11,7,5,57,42,23,30.56,30.28,15,4,17,0.00
2013-1-10,37,24,14,14,6,1,66,47,26,30.28,29.73,25,6,28,0.00
2013-1-11,24,16,4,20,2,-15,91,55,24,30.01,29.44,25,6,31,0.00
2013-1-12,13,3,-8,-6,-12,-18,65,50,35,30.35,30.01,9,2,12,0.00
2013-1-13,10,0,-11,-3,-10,-19,85,63,48,30.52,30.35,15,3,16,0.00
2013-1-14,12,1,-7,0,-7,-13,83,69,51,30.56,30.41,9,2,10,0.00
2013-1-15,23,10,-4,9,-4,-16,61,52,38,30.68,30.53,35,8,41,0.00
2013-1-16,42,27,15,16,12,6,68,53,35,30.65,30.41,20,3,20,0.00
2013-1-17,41,25,13,17,12,6,77,58,37,30.64,30.46,18,4,19,0.00
2013-1-18,42,28,14,12,5,0,64,39,22,30.52,30.30,12,4,12,0.00
2013-1-19,47,32,19,6,1,-4,40,27,15,30.48,30.31,8,2,10,0.00
2013-1-20,45,31,17,4,-2,-8,39,25,11,30.36,30.17,12,3,12,0.00
2013-1-21,46,32,19,11,3,-7,45,29,18,30.33,30.21,14,4,17,0.00
2013-1-22,52,37,24,-3,-10,-22,28,14,4,30.34,30.22,16,3,18,0.00
2013-1-23,56,37,20,-2,-9,-16,25,15,5,30.38,30.24,14,4,16,0.00
2013-1-24,51,41,31,25,12,-7,65,33,15,30.27,29.94,35,7,37,0.00
2013-1-25,47,37,27,28,26,22,81,64,45,30.17,30.06,15,2,15,0.00
2013-1-26,42,35,31,32,27,23,96,76,56,30.10,29.74,18,4,22,0.03
2013-1-27,48,38,29,31,25,16,87,63,28,29.80,29.72,19,5,23,0.03
2013-1-28,36,29,20,30,22,10,95,78,53,29.76,29.55,19,4,29,0.01
2013-1-29,20,15,9,14,0,-11,81,54,28,30.17,29.68,33,9,38,0.00
2013-1-30,27,19,4,9,1,-7,64,46,33,30.29,30.17,35,10,39,0.00
2013-1-31,38,30,22,12,7,2,55,39,25,30.29,30.21,32,8,36,0.00
2013-2-1,39,30,22,13,9,4,59,43,25,30.35,30.17,33,8,41,0.00
2013-2-2,45,32,23,10,7,1,52,36,18,30.46,30.34,10,2,12,0.00
2013-2-3,45,31,21,12,5,-1,48,34,16,30.40,30.01,22,5,29,0.00
2013-2-4,45,31,19,7,3,-1,49,32,15,30.15,29.99,21,4,23,0.00
2013-2-5,49,34,24,14,9,5,49,36,18,30.17,29.97,12,3,13,0.00
2013-2-6,45,33,21,22,14,9,76,48,24,30.03,29.84,18,4,22,0.00
2013-2-7,43,28,18,19,10,1,71,49,17,30.24,30.03,18,5,21,0.00
2013-2-8,40,30,15,21,14,6,77,54,34,30.21,29.78,33,7,34,0.00
2013-2-9,34,27,21,20,13,-1,77,57,35,29.79,29.47,25,6,27,0.00
2013-2-10,30,21,14,15,3,-5,90,47,25,30.08,29.65,28,6,32,0.00
2013-2-11,21,13,4,14,9,0,90,82,62,30.34,30.08,15,3,18,0.00
2013-2-12,31,16,3,7,2,-4,81,56,35,30.47,30.34,13,4,15,0.00
2013-2-13,38,24,13,12,7,2,64,49,26,30.42,30.16,26,5,30,0.00
2013-2-14,36,25,15,12,6,-4,83,46,20,30.33,30.17,22,5,23,0.00
2013-2-15,32,22,12,12,5,-4,89,51,22,30.53,30.32,27,7,31,0.00
2013-2-16,46,31,19,8,5,2,55,35,18,30.52,30.15,18,3,22,0.00
2013-2-17,47,34,24,21,-2,-26,83,27,4,30.16,29.63,27,5,29,0.00
2013-2-18,33,23,14,17,0,-9,86,40,16,30.25,29.68,35,7,37,0.00
2013-2-19,38,23,6,3,-4,-10,52,33,13,30.29,29.93,22,6,25,0.00
2013-2-20,35,24,16,23,12,2,93,64,38,29.93,29.57,19,4,19,0.00
2013-2-21,32,23,16,22,17,8,93,78,42,29.97,29.65,15,3,23,0.06
2013-2-22,28,17,9,17,8,2,88,68,48,30.19,29.96,20,5,27,0.00
2013-2-23,34,21,10,20,9,-2,92,62,38,30.18,29.84,17,4,17,0.00
2013-2-24,22,17,8,18,11,1,92,77,60,30.26,29.78,16,4,18,0.00
2013-2-25,36,19,3,11,5,-3,80,56,32,30.38,30.09,15,3,18,0.00
2013-2-26,26,19,13,16,7,0,82,59,47,30.31,29.89,26,7,31,0.00
2013-2-27,29,17,4,2,-2,-7,67,45,24,30.53,30.31,21,5,22,0.00
2013-2-28,35,21,9,13,2,-6,67,43,24,30.58,30.40,26,6,34,0.00
2013-3-1,40,29,18,19,14,9,68,55,37,30.53,30.40,33,10,39,0.00
2013-3-2,52,37,25,20,17,13,64,45,25,30.51,30.15,16,3,17,0.00
2013-3-3,50,39,31,25,17,10,78,44,20,30.15,29.66,37,4,47,0.00
2013-3-4,42,30,16,31,18,1,95,66,26,30.22,29.67,29,6,34,0.02
2013-3-5,51,29,13,6,-2,-15,56,29,7,30.45,30.22,18,5,23,0.00
2013-3-6,52,37,22,16,10,3,50,32,21,30.28,29.90,21,6,27,0.00
2013-3-7,55,44,34,14,6,-6,39,23,8,29.95,29.79,20,6,27,0.00
2013-3-8,48,35,26,30,18,9,95,53,25,29.87,29.59,28,4,31,0.00
2013-3-9,32,26,18,27,23,13,94,88,77,30.10,29.56,10,1,15,0.02
2013-3-10,37,25,12,14,10,3,78,55,35,30.32,30.09,37,13,38,0.00
2013-3-11,47,34,23,16,12,9,60,41,23,30.31,29.97,27,5,36,0.00
2013-3-12,49,37,24,24,18,11,81,49,24,30.23,30.06,21,4,23,0.00
2013-3-13,55,41,30,21,16,11,60,39,18,30.31,30.19,16,4,19,0.00
2013-3-14,59,45,32,21,14,-3,48,31,8,30.34,30.14,23,5,28,0.00
2013-3-15,61,49,36,21,15,5,47,27,12,30.15,29.76,33,6,40,0.00
2013-3-16,46,38,33,33,25,15,83,60,30,29.82,29.68,30,5,37,0.00
2013-3-17,45,34,25,30,21,9,85,62,26,29.83,29.58,24,5,28,0.00
2013-3-18,39,32,26,16,6,-2,64,34,23,30.01,29.82,22,4,28,0.00
2013-3-19,43,36,27,13,-5,-30,50,20,4,30.24,29.98,29,10,34,0.00
2013-3-20,49,34,18,21,6,-10,48,32,17,30.25,29.86,25,5,29,0.00
2013-3-21,41,34,29,32,22,2,95,64,27,29.86,29.55,27,6,32,0.01
2013-3-22,41,31,21,16,7,-7,60,37,15,29.84,29.62,24,5,31,0.00
2013-3-23,27,16,8,14,8,1,88,71,47,30.31,29.69,20,5,22,0.00
2013-3-24,23,12,0,6,1,-5,87,64,33,30.49,30.31,20,4,23,0.00
2013-3-25,36,18,3,8,-3,-9,65,42,21,30.54,30.39,14,3,15,0.00
2013-3-26,50,32,12,21,11,2,75,45,18,30.44,30.04,31,4,31,0.00
2013-3-27,54,42,30,25,17,7,67,40,16,30.06,29.90,17,4,23,0.00
2013-3-28,55,40,27,24,20,8,70,48,18,30.12,29.99,19,4,27,0.00
2013-3-29,57,42,30,26,21,13,71,45,20,30.17,30.00,26,6,27,0.00
2013-3-30,56,44,31,27,20,12,74,44,20,30.12,29.95,22,4,27,0.00
2013-3-31,58,43,27,25,15,1,74,40,10,30.08,29.90,15,4,17,0.00
2013-4-1,55,41,29,25,20,13,80,44,23,30.01,29.73,20,5,22,0.00
2013-4-2,47,32,25,29,25,22,94,78,44,30.11,29.86,23,4,23,0.00
2013-4-3,49,36,24,31,23,13,95,66,28,30.23,30.11,22,6,28,0.12
2013-4-4,59,44,30,25,20,14,68,41,19,30.24,29.99,14,3,14,0.00
2013-4-5,59,47,35,34,23,15,93,42,20,29.99,29.62,28,4,33,0.03
2013-4-6,53,39,33,33,26,16,94,62,23,29.83,29.73,31,5,32,0.03
2013-4-8,42,42,42,31,31,30,65,64,62,29.33,29.32,3,2,13,0.00
2013-4-9,22,19,15,20,17,13,91,90,88,29.94,29.49,14,8,16,0.00
2013-4-10,37,33,9,22,16,6,88,49,41,30.13,30.06,25,12,29,0.01
2013-4-11,45,41,38,24,22,20,49,47,44,29.87,29.86,6,5,14,0.00
2013-4-12,32,30,29,26,25,24,84,82,79,29.89,29.88,6,2,6,0.00
2013-4-13,56,47,27,33,20,10,87,38,19,29.86,29.40,26,6,38,0.02
2013-4-14,42,35,29,34,23,13,96,67,32,29.68,29.39,24,5,34,0.18
2013-4-15,51,40,34,34,28,21,73,62,38,29.72,29.54,23,10,27,0.00
2013-4-18,21,17,11,10,6,2,90,63,45,30.47,30.07,18,7,21,0.00
2013-4-19,37,35,32,16,14,12,52,42,36,30.33,30.09,21,5,23,0.00
2013-4-20,48,36,27,29,21,15,77,55,32,30.09,29.87,15,4,22,0.00
2013-4-21,48,32,29,27,24,19,81,72,35,30.11,30.03,12,2,14,0.00
2013-4-22,49,28,22,27,21,20,89,78,34,29.93,29.73,20,9,30,0.00
2013-4-23,37,24,16,24,16,4,90,73,30,30.32,29.92,20,5,20,0.01
2013-4-24,46,31,15,18,10,2,87,46,17,30.36,30.25,22,4,25,0.00
2013-4-25,59,41,24,29,19,11,65,44,16,30.30,29.91,36,5,36,0.00
2013-4-26,57,45,31,29,18,6,63,37,15,30.18,29.98,16,4,18,0.00
2013-4-27,61,46,30,29,16,0,70,36,10,30.21,30.01,20,5,24,0.00
2013-4-28,67,52,35,21,16,11,48,27,13,30.05,29.75,17,5,19,0.00
2013-4-29,68,56,39,28,19,10,54,26,12,29.78,29.49,27,5,33,0.00
2013-4-30,69,58,46,31,18,12,52,22,12,29.51,29.36,25,6,33,0.00
2013-5-1,47,33,20,32,27,18,93,81,53,30.47,29.42,22,7,27,0.01
2013-5-2,42,28,17,20,15,6,92,63,22,30.75,30.47,27,5,27,0.07
2013-5-3,60,42,26,20,13,7,74,35,13,30.56,29.96,14,3,15,0.00
2013-5-4,58,42,30,32,21,14,88,48,20,30.09,29.86,23,4,32,0.00
2013-5-5,57,41,31,31,23,17,88,50,25,30.12,29.97,20,5,23,0.00
2013-5-6,52,40,33,38,29,18,94,67,48,30.05,29.84,20,4,24,0.37
2013-5-7,55,42,33,36,32,23,95,69,31,29.99,29.87,19,3,27,0.38
2013-5-8,44,37,32,37,32,30,96,85,58,30.07,29.90,15,2,15,0.29
2013-5-9,44,37,32,36,32,30,97,86,60,30.25,30.06,19,2,25,0.60
2013-5-10,53,40,30,32,28,23,93,66,33,30.30,30.20,20,5,23,0.00
2013-5-11,59,48,36,34,29,22,79,51,25,30.33,30.16,9,4,12,0.00
2013-5-12,52,51,50,33,33,32,52,50,46,30.17,30.16,4,1,6,0.00
2013-5-13,65,65,65,33,33,33,31,31,31,29.97,29.96,5,4,11,0.00
2013-5-14,71,58,51,41,37,27,65,47,21,29.84,29.74,23,6,25,0.00
2013-5-15,69,52,42,43,38,31,90,62,25,29.83,29.73,26,5,28,0.06
2013-5-16,71,55,37,43,32,22,91,51,17,29.83,29.69,16,4,19,0.06
2013-5-17,73,59,43,34,20,0,57,27,7,29.75,29.55,23,6,30,0.00
2013-5-18,64,51,42,32,23,15,61,34,19,29.69,29.55,26,5,29,0.00
2013-5-19,54,45,38,30,25,17,68,47,25,29.81,29.66,30,6,36,0.00
2013-5-20,56,43,33,38,29,22,85,59,29,29.96,29.78,30,5,33,0.02
2013-5-21,61,48,37,29,24,17,65,42,19,30.00,29.80,18,5,23,0.02
2013-5-22,69,53,36,32,27,20,66,40,18,29.83,29.65,25,5,29,0.00
2013-5-23,73,54,44,41,34,12,86,53,10,29.84,29.63,26,7,33,0.00
2013-5-24,74,58,41,42,24,-2,90,41,5,29.86,29.73,26,5,29,0.00
2013-5-25,75,60,41,28,15,2,46,21,6,29.81,29.62,23,6,26,0.00
2013-5-26,76,61,45,30,17,4,41,20,7,29.75,29.53,21,6,26,0.00
2013-5-27,71,60,43,22,14,4,34,18,8,29.65,29.45,23,4,26,0.00
2013-5-28,71,56,39,25,17,3,44,23,8,29.59,29.36,26,6,29,0.00
2013-5-29,58,50,43,30,24,18,59,38,23,29.57,29.36,34,6,38,0.00
2013-5-30,61,51,39,25,16,9,53,28,14,29.75,29.57,39,8,44,0.00
2013-5-31,60,51,41,26,15,2,53,26,11,29.91,29.72,30,8,41,0.00
2013-6-1,70,53,39,30,19,10,47,28,12,30.02,29.88,21,6,28,0.00
2013-6-2,76,58,38,33,23,8,65,33,8,29.98,29.67,28,5,37,0.00
2013-6-3,75,62,46,32,24,16,43,26,11,29.68,29.53,29,5,33,0.00
2013-6-4,75,60,46,35,30,24,52,33,16,29.73,29.61,32,5,37,0.00
2013-6-5,75,56,45,45,36,6,87,57,7,29.86,29.65,28,7,35,0.00
2013-6-6,75,57,41,41,33,19,86,48,13,29.91,29.75,22,4,24,0.00
2013-6-7,70,56,44,46,37,31,71,51,24,29.88,29.66,30,5,35,0.01
2013-6-8,76,63,46,40,30,18,58,33,12,29.70,29.57,30,7,37,0.00
2013-6-9,84,65,46,40,29,9,67,33,6,29.79,29.65,22,4,26,0.00
2013-6-10,87,70,50,37,27,14,43,23,7,29.73,29.55,27,6,33,0.00
2013-6-11,83,70,53,31,19,1,36,17,5,29.68,29.51,28,7,36,0.00
2013-6-12,82,69,50,31,21,15,34,18,9,29.82,29.65,26,6,28,0.00
2013-6-13,85,67,52,41,27,18,50,24,10,29.78,29.58,23,6,36,0.00
2013-6-14,81,68,57,40,31,12,51,29,9,29.74,29.51,23,6,26,0.00
2013-6-15,79,63,47,40,28,12,59,31,9,29.80,29.62,27,6,32,0.00
2013-6-16,73,59,51,50,35,28,87,44,22,29.91,29.73,25,5,26,0.10
2013-6-17,77,58,44,42,36,24,79,49,15,29.96,29.81,30,6,33,0.05
2013-6-18,77,61,44,43,36,27,77,44,20,29.92,29.64,29,6,32,0.00
2013-6-19,83,65,45,41,22,-7,73,32,3,29.70,29.47,30,6,34,0.00
2013-6-20,82,67,49,18,12,2,23,13,5,29.62,29.47,29,6,30,0.00
2013-6-21,81,66,48,25,18,11,34,17,8,29.65,29.49,21,6,24,0.00
2013-6-22,80,66,48,26,17,7,33,17,7,29.65,29.46,21,6,28,0.00
2013-6-23,77,64,46,37,24,13,36,23,9,29.69,29.49,32,6,32,0.00
2013-6-24,78,64,48,42,21,7,56,24,8,29.67,29.51,22,4,26,0.00
2013-6-25,81,68,55,28,22,14,26,18,12,29.72,29.58,18,5,20,0.00
2013-6-26,87,70,51,37,28,11,43,24,6,29.82,29.68,22,5,26,0.00
2013-6-27,91,74,56,40,30,21,39,22,9,29.87,29.71,19,5,24,0.00
2013-6-28,86,71,57,44,39,24,53,34,13,29.88,29.71,23,5,29,0.00
2013-6-29,79,62,53,51,44,37,71,52,23,29.91,29.76,19,4,25,0.02
2013-6-30,79,60,49,52,45,34,93,63,22,30.00,29.79,29,5,34,0.04
2013-7-1,78,59,47,54,45,32,92,65,21,30.02,29.88,20,5,27,0.16
2013-7-2,77,60,47,50,43,31,86,59,20,30.01,29.80,25,4,25,0.09
2013-7-3,79,59,46,47,42,26,86,58,15,29.90,29.69,29,4,37,0.09
2013-7-4,82,65,51,47,40,32,71,44,17,29.82,29.62,21,4,26,0.01
2013-7-5,81,66,55,53,44,39,80,48,23,29.68,29.47,17,4,34,0.09
2013-7-6,78,63,54,53,48,42,87,62,29,29.78,29.61,24,4,29,0.14
2013-7-7,79,66,56,51,47,42,82,54,29,29.80,29.68,19,4,23,0.01
2013-7-8,84,66,50,54,44,29,95,55,15,29.86,29.77,26,5,26,0.09
2013-7-9,84,69,53,47,38,31,55,35,15,29.92,29.73,18,6,22,0.01
2013-7-10,83,68,56,50,44,35,64,43,21,29.86,29.68,25,6,26,0.01
2013-7-11,86,68,51,53,46,32,94,53,16,29.81,29.58,19,5,25,0.00
2013-7-12,81,68,58,51,46,36,62,46,21,29.71,29.56,20,5,23,0.00
2013-7-13,81,68,58,50,47,40,66,50,27,29.77,29.68,26,5,26,0.00
2013-7-14,79,62,53,55,49,40,97,66,27,29.89,29.71,21,4,22,0.64
2013-7-15,63,55,51,57,52,47,98,91,75,29.99,29.86,15,4,20,1.06
2013-7-16,72,59,47,50,46,44,94,66,39,30.03,29.89,18,4,20,0.00
2013-7-17,79,64,48,50,46,38,89,57,24,30.03,29.83,18,4,21,0.00
2013-7-18,82,61,51,53,48,42,96,66,27,29.97,29.69,29,5,32,0.34
2013-7-19,74,58,50,55,51,45,97,80,39,29.96,29.86,25,4,27,0.35
2013-7-20,82,65,51,53,46,28,92,56,15,29.94,29.65,18,4,22,0.00
2013-7-21,81,65,54,53,46,28,86,57,16,29.72,29.57,16,5,22,0.00
2013-7-22,82,67,54,45,40,34,60,39,19,29.75,29.61,18,5,21,0.00
2013-7-23,85,69,53,42,34,20,53,31,10,29.81,29.67,25,5,33,0.00
2013-7-24,71,63,58,54,47,39,75,55,36,29.83,29.71,26,4,31,0.00
2013-7-25,75,61,52,52,48,41,86,64,33,29.99,29.80,18,4,24,0.00
2013-7-26,78,62,47,51,46,38,90,61,25,30.04,29.90,18,5,20,0.00
2013-7-27,77,60,52,52,48,42,92,67,30,29.96,29.68,24,5,32,0.07
2013-7-28,69,58,51,55,51,47,97,81,50,29.80,29.69,22,3,26,0.29
2013-7-29,76,62,51,51,45,38,87,59,29,29.91,29.75,23,4,36,0.02
2013-7-30,76,62,47,46,41,34,80,49,23,30.03,29.91,22,4,24,0.02
2013-7-31,81,66,50,48,38,31,68,39,18,30.06,29.83,12,4,14,0.00
2013-8-1,71,62,51,51,46,41,78,58,39,29.87,29.75,25,5,26,0.01
2013-8-2,80,66,54,49,46,40,77,51,25,29.82,29.68,17,4,19,0.00
2013-8-3,78,64,52,50,44,33,74,51,23,29.93,29.74,22,6,25,0.00
2013-8-4,79,63,51,52,47,40,87,60,25,29.94,29.77,26,5,30,0.04
2013-8-5,74,58,50,53,47,36,92,69,32,29.89,29.80,19,4,21,0.09
2013-8-6,72,58,50,51,47,35,93,69,28,29.92,29.80,25,5,31,0.01
2013-8-7,63,53,49,50,46,41,95,79,48,29.95,29.84,18,4,22,0.11
2013-8-8,70,56,49,48,43,35,87,64,35,29.98,29.85,21,4,30,0.00
2013-8-9,72,54,44,50,42,38,84,66,33,30.09,29.92,20,4,28,0.25
2013-8-10,75,57,44,48,42,34,90,63,24,30.10,29.95,26,5,31,0.02
2013-8-11,72,58,46,44,40,30,83,55,25,30.04,29.88,13,3,15,0.00
2013-8-12,71,56,48,50,44,38,83,65,35,30.01,29.87,23,4,26,0.17
2013-8-13,74,58,44,48,41,30,86,58,21,30.06,29.93,20,5,25,0.07
2013-8-14,76,59,44,47,37,21,82,49,14,30.00,29.86,33,6,41,0.00
2013-8-15,78,63,46,44,33,21,62,37,12,29.99,29.84,17,5,21,0.00
2013-8-16,80,65,49,42,33,24,57,34,13,29.96,29.82,48,5,48,0.00
2013-8-17,81,66,50,40,33,23,55,32,13,29.93,29.75,16,4,17,0.00
2013-8-18,81,62,52,50,40,32,78,46,21,29.94,29.75,25,5,32,0.00
2013-8-19,81,65,48,46,41,33,76,46,18,29.95,29.79,17,5,23,0.00
2013-8-20,79,66,51,46,40,31,67,42,19,29.86,29.69,19,4,24,0.00
2013-8-21,81,66,56,46,43,37,59,45,22,29.85,29.73,26,4,32,0.00
2013-8-22,80,65,53,51,45,39,86,52,25,29.91,29.72,17,5,22,0.00
2013-8-23,77,63,51,52,47,36,95,61,30,29.88,29.67,24,4,31,0.01
2013-8-24,76,63,52,46,43,36,70,49,28,29.85,29.72,20,4,21,0.00
2013-8-25,76,62,52,53,50,44,92,66,37,29.92,29.83,19,6,26,0.02
2013-8-26,78,66,55,52,48,45,77,55,33,29.94,29.76,23,6,26,0.00
2013-8-27,84,67,52,50,45,33,79,50,17,29.89,29.71,20,5,24,0.00
2013-8-28,82,68,54,48,43,33,69,44,21,29.83,29.68,19,5,20,0.00
2013-8-29,85,67,52,48,43,32,70,45,16,29.92,29.78,20,6,24,0.00
2013-8-30,81,66,58,50,46,37,69,51,22,29.91,29.78,28,6,33,0.00
2013-8-31,76,62,55,55,48,40,85,62,29,29.87,29.75,28,4,32,0.03
2013-9-1,75,60,51,56,50,42,91,71,37,29.94,29.81,20,4,25,0.07
2013-9-2,77,62,51,54,48,40,94,64,32,29.95,29.81,17,4,23,0.07
2013-9-3,78,65,52,51,47,42,79,55,30,29.92,29.78,16,5,18,0.00
2013-9-4,80,63,54,53,48,41,85,61,26,29.98,29.85,23,5,26,0.00
2013-9-5,84,67,50,49,43,31,87,50,15,30.03,29.84,17,5,18,0.00
2013-9-6,84,67,52,45,40,33,67,40,17,29.90,29.70,24,5,24,0.00
2013-9-7,83,67,52,46,40,32,69,41,16,29.85,29.66,19,5,23,0.00
2013-9-8,81,66,53,48,40,27,67,42,15,29.77,29.52,17,4,21,0.02
2013-9-9,76,63,51,51,44,34,87,52,22,29.66,29.49,23,6,24,0.05
2013-9-10,65,56,52,52,51,48,96,83,56,29.92,29.66,17,4,22,0.12
2013-9-11,67,56,51,54,52,50,98,88,61,29.96,29.88,19,3,20,0.50
2013-9-12,65,56,52,56,52,50,98,88,65,30.00,29.86,19,3,23,0.27
2013-9-13,62,55,50,53,50,44,98,84,63,29.88,29.72,18,5,23,0.62
2013-9-14,66,55,48,49,46,42,92,71,48,29.81,29.68,20,3,22,0.00
2013-9-15,62,52,45,49,45,41,96,78,56,30.06,29.81,15,3,18,0.47
2013-9-16,68,54,46,52,46,40,97,78,38,30.06,29.90,19,2,21,0.48
2013-9-17,71,57,44,49,43,39,82,63,36,29.98,29.69,18,5,25,0.00
2013-9-18,67,54,47,50,45,41,90,72,47,29.79,29.60,24,4,30,0.13
2013-9-19,68,54,42,46,40,24,88,64,24,29.94,29.75,23,5,24,0.00
2013-9-20,72,54,42,46,37,20,89,58,15,29.98,29.81,19,4,19,0.00
2013-9-21,72,56,42,45,37,29,83,52,22,29.90,29.65,16,3,20,0.00
2013-9-22,61,48,40,47,41,36,95,76,53,29.66,29.43,19,3,19,0.32
2013-9-23,54,46,40,39,30,23,95,56,30,30.07,29.47,28,7,37,0.34
2013-9-24,66,50,35,31,28,20,72,46,18,30.14,29.85,20,5,22,0.00
2013-9-25,71,56,39,34,29,21,65,38,16,29.85,29.40,32,7,32,0.00
2013-9-26,68,58,48,33,22,14,52,26,13,29.51,29.38,32,10,36,0.00
2013-9-27,53,46,34,40,29,16,83,52,31,29.89,29.41,28,7,36,0.05
2013-9-28,62,44,30,24,20,14,66,40,18,30.17,29.89,14,4,21,0.00
2013-9-29,66,51,35,27,20,13,59,33,15,30.13,29.85,19,3,30,0.00
2013-9-30,72,58,46,32,24,18,39,27,20,29.93,29.63,25,4,30,0.00
2013-10-1,70,56,37,33,28,18,62,36,20,29.85,29.67,21,6,23,0.00
2013-10-2,69,54,39,31,22,4,56,33,9,29.85,29.67,17,4,20,0.00
2013-10-3,68,54,41,26,23,20,48,31,17,29.70,29.39,30,7,33,0.00
2013-10-4,51,37,28,28,14,-2,73,41,15,30.15,29.40,23,7,29,0.00
2013-10-5,50,36,24,15,10,0,61,38,13,30.36,30.14,40,10,42,0.00
2013-10-6,66,47,30,25,16,9,46,31,15,30.38,30.16,17,3,18,0.00
2013-10-7,70,52,34,26,22,13,61,35,12,30.20,29.87,19,6,24,0.00
2013-10-8,65,53,38,26,22,19,50,31,19,29.88,29.55,29,6,29,0.00
2013-10-9,61,50,37,29,22,12,59,36,18,29.76,29.64,27,6,30,0.00
2013-10-10,50,43,36,35,29,19,81,58,29,29.77,29.39,26,7,28,0.00
2013-10-11,50,42,35,26,23,19,63,48,32,30.02,29.59,22,6,30,0.00
2013-10-12,52,40,28,32,25,19,72,57,36,30.14,29.99,22,5,26,0.00
2013-10-13,58,47,33,36,31,25,74,55,31,30.12,29.78,28,6,32,0.00
2013-10-14,48,41,32,36,26,17,93,57,29,30.05,29.68,29,7,37,0.01
2013-10-15,39,31,25,28,24,19,92,78,59,30.22,30.04,21,5,23,0.00
2013-10-16,45,33,22,27,19,11,95,63,28,30.23,30.12,18,4,22,0.01
2013-10-17,50,37,25,20,13,8,58,40,19,30.18,29.92,31,5,31,0.00
2013-10-18,42,33,27,22,13,3,77,46,20,30.22,29.94,26,7,33,0.00
2013-10-19,54,39,27,18,13,6,48,35,19,30.23,30.00,19,3,21,0.00
2013-10-20,54,42,33,29,18,12,78,39,22,30.00,29.76,20,4,24,0.00
2013-10-21,53,39,26,29,19,8,89,52,17,30.23,29.97,21,4,26,0.00
2013-10-22,60,44,30,22,19,16,59,40,21,30.27,30.07,14,3,17,0.00
2013-10-23,63,46,32,22,19,13,58,36,15,30.17,29.99,12,4,14,0.00
2013-10-24,62,44,30,30,21,12,70,42,15,30.16,30.01,17,5,18,0.00
2013-10-25,57,42,32,36,27,20,85,59,30,30.19,30.01,17,4,22,0.02
2013-10-26,57,44,33,34,27,19,87,56,25,30.29,30.14,10,3,13,0.02
2013-10-27,56,43,32,28,21,17,61,43,22,30.16,29.81,15,3,19,0.00
2013-10-28,56,42,32,31,23,15,82,52,21,29.85,29.66,27,6,31,0.00
2013-10-29,52,40,30,32,22,14,92,53,24,29.88,29.73,25,6,30,0.00
2013-10-30,43,34,27,30,18,10,94,54,28,29.88,29.76,22,5,35,0.00
2013-10-31,44,32,26,18,15,11,67,51,27,30.06,29.88,29,5,33,0.00
2013-11-1,46,35,25,21,16,7,73,48,21,30.32,30.05,30,6,31,0.00
2013-11-2,61,40,25,17,10,-16,60,34,4,30.33,29.92,18,4,21,0.00
2013-11-3,54,42,32,25,17,9,71,37,20,29.92,29.49,26,6,30,0.00
2013-11-4,40,31,25,24,19,15,88,61,41,29.92,29.67,23,5,26,0.00
2013-11-5,34,26,16,23,11,-2,94,58,26,30.35,29.87,22,5,26,0.00
2013-11-6,41,29,16,13,6,-3,48,38,25,30.55,30.35,27,4,32,0.00
2013-11-7,55,38,25,18,14,12,63,40,19,30.56,30.14,19,4,20,0.00
2013-11-8,58,44,33,15,12,8,44,28,15,30.14,29.81,35,6,36,0.00
2013-11-9,58,43,34,20,14,8,50,32,15,30.17,29.99,10,2,12,0.00
2013-11-10,58,42,30,16,14,11,52,34,16,30.27,30.12,16,4,18,0.00
2013-11-11,57,42,32,22,15,10,67,36,19,30.41,30.20,10,3,12,0.00
2013-11-12,51,34,23,25,20,12,95,63,22,30.61,30.41,12,3,14,0.00
2013-11-13,55,40,27,18,12,9,50,34,17,30.56,30.04,12,4,14,0.00
2013-11-14,52,40,32,24,17,4,62,42,18,30.04,29.76,12,3,16,0.00
2013-11-15,46,36,28,30,21,15,95,59,31,29.76,29.52,22,5,25,0.00
2013-11-16,43,34,29,30,21,11,96,62,29,29.57,29.41,30,6,32,0.00
2013-11-17,45,35,27,25,17,9,94,51,27,30.16,29.57,39,6,51,0.00
2013-11-18,51,35,21,20,15,8,66,46,22,30.29,30.13,13,3,14,0.00
2013-11-19,52,36,24,24,18,12,61,48,24,30.15,29.78,19,4,22,0.00
2013-11-20,48,39,31,30,23,18,94,56,32,29.86,29.70,15,3,19,0.00
2013-11-21,32,26,12,31,24,10,97,94,87,30.50,29.82,21,5,21,0.00
2013-11-22,24,18,11,22,16,8,95,92,89,30.80,30.49,16,1,21,0.00
2013-11-23,24,21,18,21,19,16,95,92,87,30.79,30.53,0,0,0,0.00
2013-11-24,28,22,16,25,20,14,96,90,78,30.53,30.13,0,0,0,0.00
2013-11-25,36,28,20,26,20,15,90,73,53,30.43,30.13,12,1,15,0.03
2013-11-26,35,25,16,23,18,12,90,75,56,30.57,30.43,11,2,12,0.00
2013-11-27,40,28,17,22,16,11,80,64,42,30.53,30.29,9,2,10,0.00
2013-11-28,40,28,19,18,15,12,75,60,39,30.37,30.24,10,3,12,0.01
2013-11-29,42,29,19,20,15,10,71,55,30,30.42,30.30,11,3,13,0.00
2013-11-30,44,30,20,18,14,9,66,52,31,30.43,30.28,11,3,14,0.00
2013-12-1,44,32,16,22,13,6,64,45,24,30.35,30.05,32,6,37,0.00
2013-12-2,45,40,32,21,19,15,58,43,31,30.06,29.61,35,11,40,0.00
2013-12-3,41,32,27,27,21,13,91,66,33,29.61,29.42,19,6,21,0.00
2013-12-4,31,18,3,27,14,-1,94,83,75,29.91,29.33,23,10,27,0.00